User: anonymous   Login
Location: Unspecified
(0.0000°N, 0.0000°E)
Time: 03:53:48
(UTC+00:00)
Language:

Transit 2A Rocket - Orbit

View from above orbital plane
View from above orbital plane
View from above satellite
View from above satellite

Ground track
Ground track

The orbit data is extracted from the following two-line orbital elements,

1 00047U 60007C   16037.23235405  .00000096  00000-0  46703-4 0  9994
2 00047  66.6657  94.2432 0225263  26.9333 334.3254 14.41770527905421
Epoch (UTC): 06 February 2016 05:34:35
Eccentricity: 0.0225263
inclination: 66.6657°
perigee height: 592 km
apogee height: 913 km
right ascension of ascending node: 94.2432°
argument of perigee: 26.9333°
revolutions per day: 14.41770527
mean anomaly at epoch: 334.3254°
orbit number at epoch: 90542

The dashed part of the orbit path shows where the satellite is in the earth's shadow,  

DLR